Portada
METAR-TAF:

METAR-TAF

Aeroports :

Kairuan, Tunísia

latitud: 35-40N, longitud: 010-06E, altitud: 60 m

Observació

L'informe es va fer fa 1 hora i 3 minuts, a les 18:00 UTC
Vent 9 kt del Est/Sud-Est, variant entre Nord/Nord-Est i Sud
Temperatura 20°C
Humitat 64%
Pressió 1016 hPa
Visibilitat 10 km o més
Escasses núvols a una alçada de 2300 ft

METAR: DTTK 181800Z 12009KT 020V170 9999 FEW023 20/13 Q1016

Hora: 20:03 (19:03 UTC)


TAF: manca

Observacions i pronòstics meteorològics de més de 4000 aeroports (METAR i TAF).

Les estacions disponibles són els punts grocs i vermells al mapa.

Posi el ratolí al punt desitjat per veure el nom de l'estació.

Feu clic per veure les observacions i els pronòstics meteorològics.

Per canviar el mapa: feu clic els botons verds amb una creu de color negre per apropar; al botó verd amb un guió per allunyar la imatge; o en les fletxes verdes per a mapes adjacents.


METAR-TAF: